Regional Weather Roundup
Issued by NWS

Home | Current Version | Previous Version | Graphics & Text | Print | Product List | Glossary On
Versions: 1 2 3 4 5 6 7 8 9 10 11 12 13 14 15 16 17 18 19 20 21 22 23 24 25 26 27 28 29 30 31 32 33 34 35 36 37 38 39 40 41 42 43 44 45 46 47 48 49 50
000
ASUS43 KLOT 070002
RWRIL

ILLINOIS REGIONAL WEATHER ROUNDUP
NATIONAL WEATHER SERVICE CHICAGO/ROMEOVILLE IL
700 PM CDT WED MAY 06 2015

NOTE: "FAIR" INDICATES FEW OR NO CLOUDS BELOW 12,000 FEET WITH NO
SIGNIFICANT WEATHER AND/OR OBSTRUCTIONS TO VISIBILITY.

* THESE STATIONS ARE NOT UNDER NWS QUALITY CONTROL. THEY ALSO MAY NOT
  REPORT WEATHER SUCH AS PRECIPITATION OR FOG.

ILZ001-002-007-009-015-016-024-070100-
NORTHWEST ILLINOIS

CITY           SKY/WX    TMP DP  RH WIND       PRES   REMARKS
MOLINE         CLOUDY    71  60  68 W6        30.00S
6HR MIN TEMP:  71; 6HR MAX TEMP:  83;

STERLING*      PTSUNNY   81  54  39 S5        30.00F HX  80
$$

ILZ003-004-008-010-011-017-018-070100-
NORTH CENTRAL ILLINOIS

CITY           SKY/WX    TMP DP  RH WIND       PRES   REMARKS
ROCKFORD       PTCLDY    77  56  48 S9        30.04F
6HR MIN TEMP:  72; 6HR MAX TEMP:  82;

$$

ILZ005-006-012>014-019>023-070100-
NORTHEAST ILLINOIS

CITY           SKY/WX    TMP DP  RH WIND       PRES   REMARKS
CHICAGO-OHARE  MOCLDY    65  55  70 NE7       30.06F
6HR MIN TEMP:  65; 6HR MAX TEMP:  77;

CHICAGO-MIDWAY MOCLDY    65  55  70 E6        30.06F
6HR MIN TEMP:  65; 6HR MAX TEMP:  82;

AURORA         MOCLDY    78  55  44 S6        30.04F
6HR MIN TEMP:  74; 6HR MAX TEMP:  83;

WAUKEGAN       PTCLDY    54  52  93 NE8       30.08F FOG
6HR MIN TEMP:  53; 6HR MAX TEMP:  59;

DUPAGE AIRPORT MOCLDY    72  58  61 E9        30.05S HAZE
6HR MIN TEMP:  72; 6HR MAX TEMP:  81;

WHEELING       PTCLDY    59  53  80 NE7       30.09F HAZE
6HR MIN TEMP:  59; 6HR MAX TEMP:  67;

NORTHERLY ISL    N/A     52  49  89 NE3         N/A
$$

LMZ740>746-070100-
SOUTHERN LAKE MICHIGAN

STATION/POSITION SKY/WX   TEMP    WIND        PRES    VSBY  WAVE
                          AIR SEA DIR/SP/G                  HT/PER
                          (F)     (DEG/KT/KT) (MB)    (MI)  (FT/S)
HARRISON CRIB              47     330/  6/  7   N/A
BURNHAM HARBOR             53      10/  5/  8   N/A
CALUMET HARBOR             52      10/  3/  6   N/A
BURNS HARBOR               58      70/  9/ 10 1019.0F
MICHIGAN CITY              57      30/ 11/ 11   N/A
MICHIGAN CITY 6N           54 54   70/  8/ 10   N/A           1
ST. JOSEPH                 56 52   50/  8/ 10   N/A           1/ 2
$$

ILZ025>027-034>036-040-047-049-050-058-095>099-070100-
WEST-CENTRAL ILLINOIS

CITY           SKY/WX    TMP DP  RH WIND       PRES   REMARKS
QUINCY         MOSUNNY   76  59  55 SE5       29.97F
$$

ILZ028>032-037-038-041>044-048-051>054-059>061-070100-
CENTRAL ILLINOIS

CITY           SKY/WX    TMP DP  RH WIND       PRES   REMARKS
DECATUR        MOCLDY    82  51  34 S14G21    30.03F HX  81
PEORIA         PTCLDY    81  51  35 S9        30.00F HX  80
6HR MIN TEMP:  81; 6HR MAX TEMP:  85;

SPRINGFIELD    CLEAR     83  51  33 S14       30.01F HX  81
6HR MIN TEMP:  83; 6HR MAX TEMP:  88;

TAYLORVILLE    NOT AVBL
$$

ILZ033-039-045-046-055>057-062-063-070100-
EAST-CENTRAL ILLINOIS

CITY           SKY/WX    TMP DP  RH WIND       PRES   REMARKS
CHAMPAIGN      MOCLDY    84  47  27 S10       30.05S HX  82
MATTOON        PTCLDY    80  51  36 S8        30.05S HX  80
$$

ILZ079-100>102-070100-
SOUTHWEST ILLINOIS

CITY           SKY/WX    TMP DP  RH WIND       PRES   REMARKS
CAHOKIA*       CLEAR     82  51  34 SE10      30.00F HX  81
$$

ILZ064>066-069>071-074>076-080>082-084>086-088>090-092>094-070100-
SOUTH-CENTRAL ILLINOIS

CITY           SKY/WX    TMP DP  RH WIND       PRES   REMARKS
CARBONDALE     CLEAR     81  54  39 S7        30.03F HX  81
6HR MIN TEMP:  81; 6HR MAX TEMP:  86;

MT. VERNON     CLEAR    N/A N/A N/A S7        30.05S
$$

ILZ067-068-072-073-078-083-087-091-070100-
SOUTHEAST ILLINOIS

CITY           SKY/WX    TMP DP  RH WIND       PRES   REMARKS
LAWRENCEVILLE  PTCLDY    82  54  37 SE14      30.06S HX  81
$$

ABBREVIATIONS USED IN REMARKS
   TC - TEMPERATURE IN CELSIUS
  WCI - WIND CHILL INDEX
   HX - HEAT INDEX
  VSB - VISIBILITY
$$



USA.gov is the U.S. government's official web portal to all federal, state and local government web resources and services.